Wind_Speed
26 26 25 25 25 24 24 24 24 24 24 24 24 24 24 24 25 25 25 25 26 26 27 27 27 28 28 28 29 29 30 31 31 30 30 31 31 30 30 30 30 31 31
27 27 27 26 26 26 26 26 26 25 25 25 25 25 25 26 27 27 26 27 27 28 28 28 29 30 30 30 31 31 30 31 31 31 31 32 32 32 32 32 32 33 33
29 29 29 28 28 27 27 27 27 27 27 26 26 26 27 27 28 28 28 29 29 29 29 30 30 31 32 32 32 32 32 33 32 32 33 33 34 34 34 34 34 34 35
31 30 30 29 29 28 28 28 28 28 28 28 28 28 28 29 29 30 30 30 30 30 31 31 31 32 32 33 33 34 34 35 35 35 35 35 35 35 36 36 36 36 36
32 32 32 31 31 30 30 30 29 29 29 30 30 30 30 31 31 31 31 31 31 31 32 33 33 33 34 34 35 36 36 37 37 37 37 37 37 38 38 37 37 37 37
33 33 32 32 31 31 31 31 31 31 31 32 32 31 32 32 32 32 32 32 32 33 34 34 34 34 35 36 37 37 38 38 38 38 38 38 38 39 39 39 39 39 40
34 34 34 33 32 32 32 32 33 33 33 33 33 33 33 33 33 32 33 33 34 35 35 35 36 36 38 38 39 39 39 39 39 39 39 39 39 40 40 40 40 41 41
35 35 35 34 34 34 34 34 34 34 34 34 34 34 34 34 33 34 34 35 36 36 37 38 39 40 40 41 41 41 40 40 40 40 40 40 40 41 41 41 41 42 42
36 36 36 35 35 36 36 36 36 36 35 35 35 35 35 35 35 35 36 37 37 38 39 40 41 42 42 43 42 41 41 41 41 40 41 41 41 42 42 43 43 43 43
38 38 38 38 37 37 37 37 36 36 35 36 36 36 36 36 37 37 37 38 39 40 40 41 42 42 43 43 43 42 42 42 42 41 41 42 42 42 43 43 44 44 45
40 40 39 39 39 37 37 38 38 37 37 37 37 37 38 38 39 39 39 39 40 41 42 43 42 43 43 43 42 42 42 42 42 41 41 42 42 43 43 43 44 46 46
41 41 41 41 40 39 39 39 39 39 39 39 39 39 39 39 40 41 41 41 42 42 43 43 42 42 43 42 42 41 41 41 41 41 42 42 43 43 44 45 45 46 46
42 42 42 42 41 42 41 40 40 40 40 40 40 40 40 40 41 42 43 43 43 42 42 41 41 42 42 42 42 41 41 41 42 42 43 43 44 45 46 46 46 46 46
44 44 44 43 42 42 42 42 42 42 42 42 42 42 42 42 43 43 44 44 43 42 41 41 42 42 43 43 43 42 42 43 43 44 44 45 46 47 47 47 47 46 46
45 45 44 44 44 43 44 43 43 43 43 44 43 43 43 44 45 44 44 44 44 42 41 41 42 43 44 44 44 44 44 45 45 45 46 47 48 48 47 47 46 45 46
45 44 44 44 44 43 44 44 44 44 44 45 45 45 45 46 46 45 45 45 45 44 44 43 44 44 45 45 45 45 46 46 47 47 48 48 48 48 46 45 45 46 46
45 45 45 45 45 45 44 45 44 45 45 45 45 45 45 46 46 46 45 45 46 46 46 45 46 46 46 47 47 47 48 48 48 49 49 48 48 46 46 46 47 47 48
46 46 46 46 45 45 45 45 45 45 45 45 45 45 45 46 46 46 45 46 46 47 47 47 46 47 48 48 47 48 48 48 49 49 49 48 47 46 47 48 48 49 49
47 47 47 46 45 45 46 46 46 46 46 46 46 46 46 46 46 46 46 47 48 48 48 48 48 48 48 48 48 48 48 49 49 48 48 47 47 47 48 48 49 49 50
48 48 48 47 47 47 47 47 47 47 46 46 46 46 47 47 46 47 47 48 48 48 49 49 48 48 48 48 48 48 48 48 48 48 48 48 48 48 49 49 49 49 49
49 49 49 49 48 48 48 48 47 47 47 47 47 47 47 47 47 47 48 48 48 48 48 49 48 48 48 48 48 48 48 48 47 47 48 48 48 48 49 49 49 49 48
49 49 49 49 48 49 49 48 48 48 48 48 49 49 48 48 48 48 48 48 49 48 49 49 49 48 48 49 49 48 48 48 47 47 48 48 47 48 48 48 48 47 47
50 50 50 51 50 50 50 49 49 50 50 50 49 49 48 48 49 48 48 48 48 49 49 49 49 49 50 50 49 48 48 48 48 48 47 47 47 47 47 47 47 47 47
51 51 51 51 51 50 50 50 50 50 50 50 49 49 48 48 49 48 48 48 49 49 49 50 50 50 50 50 49 49 49 48 48 48 47 47 47 47 46 47 47 47 47
52 52 52 52 51 50 51 51 50 49 49 50 50 49 49 49 49 49 49 49 49 49 50 50 50 50 50 50 49 49 49 49 48 48 48 47 46 46 46 46 47 47 47
52 52 52 52 52 52 51 51 50 50 50 50 50 49 49 49 49 49 50 49 50 50 50 50 50 49 50 50 50 50 49 49 48 47 47 47 47 46 45 46 47 47 47
Wind_Direction
256 258 260 263 266 268 270 271 273 274 276 279 281 284 287 290 291 293 292 293 295 296 297 298 298 299 299 298 298 297 296 295 294 294 294 293 293 293 292 292 292 291 290
256 258 260 262 265 267 268 269 270 272 275 278 281 283 286 288 291 291 291 292 293 294 296 296 297 298 298 298 298 297 298 298 296 294 294 293 292 292 292 291 291 291 290
256 257 259 262 264 265 267 268 270 272 274 277 279 282 285 287 289 291 292 292 293 294 295 295 296 297 297 298 297 297 297 297 295 294 294 293 292 292 291 291 290 291 290
256 258 259 261 262 264 266 268 270 272 274 276 279 282 284 286 287 289 291 292 292 293 295 294 295 295 296 296 296 297 297 296 295 294 294 294 293 293 292 291 291 291 290
256 258 259 260 262 264 265 267 269 271 273 276 278 281 283 285 286 287 290 291 291 292 294 295 294 295 295 295 296 295 295 295 296 294 294 293 292 292 292 291 291 290 290
257 259 260 260 261 263 265 266 268 270 273 275 278 280 282 283 285 287 288 289 291 292 294 293 293 294 295 295 295 295 295 294 294 294 293 293 292 292 292 292 291 291 290
257 259 261 261 262 264 266 268 269 271 273 275 277 279 281 282 284 286 287 288 290 292 293 293 294 295 295 295 296 296 294 294 294 294 293 293 292 292 293 292 292 291 290
256 258 261 262 263 265 267 268 270 272 274 276 277 279 280 281 282 285 287 288 290 292 293 294 295 296 296 296 296 296 295 294 294 294 293 293 292 292 292 292 291 291 291
257 259 261 262 264 265 267 268 270 272 274 276 277 279 280 281 282 284 286 288 290 291 293 294 295 296 296 297 296 295 294 294 293 293 292 292 292 292 292 291 291 292 292
257 259 261 262 264 266 266 267 269 271 273 275 277 279 280 282 283 284 286 288 289 290 292 294 295 296 296 296 295 294 294 293 293 293 293 293 293 293 292 292 292 293 293
257 258 260 262 264 266 266 267 269 271 273 275 277 279 281 282 284 285 286 287 289 290 292 293 293 294 294 295 294 293 293 293 293 293 293 293 293 294 293 293 293 293 293
257 258 260 262 263 265 266 267 268 270 272 274 277 279 281 282 284 285 286 287 288 290 291 292 293 294 294 295 294 294 294 294 293 293 293 294 294 294 295 294 294 294 294
257 259 260 262 263 264 266 268 268 270 272 274 276 279 281 283 284 285 286 287 288 290 291 292 293 294 294 295 294 293 294 294 294 294 294 294 295 295 295 295 295 294 295
257 259 260 261 263 264 265 268 269 270 272 274 276 278 280 283 284 286 287 288 289 290 291 292 293 293 294 294 294 293 293 293 293 294 294 295 296 296 296 295 294 293 293
256 257 259 260 262 263 265 268 269 270 272 274 276 278 280 282 284 285 286 287 288 290 290 292 292 293 293 293 293 293 293 293 294 294 294 295 296 297 296 295 294 293 294
255 256 258 260 262 263 265 267 269 271 273 274 275 277 279 281 283 284 285 287 288 289 290 292 292 292 292 292 293 293 293 293 294 295 295 295 296 296 295 295 294 294 294
255 257 259 261 263 264 266 268 270 272 273 274 276 278 280 281 282 283 285 286 287 289 290 291 292 292 291 292 292 293 294 294 294 295 295 295 295 294 294 295 295 295 295
255 257 260 262 263 265 267 268 270 272 274 275 276 278 279 280 281 282 284 285 287 288 290 291 292 292 292 292 293 294 294 294 295 295 296 295 294 293 294 294 295 295 295
255 257 259 261 262 264 265 268 270 272 274 275 275 277 278 279 280 281 283 285 287 289 290 291 292 292 292 292 293 293 294 295 295 296 295 294 294 294 294 294 295 295 295
255 257 259 261 263 265 267 269 271 273 274 275 276 277 278 279 281 282 284 285 288 289 290 291 291 292 292 292 293 293 294 294 295 295 295 295 295 294 295 295 295 295 295
255 257 259 261 263 265 267 269 270 272 273 275 276 277 278 279 281 282 284 286 288 289 290 291 291 291 291 292 293 293 293 294 294 294 294 295 295 295 296 296 295 295 295
256 257 259 261 264 266 267 268 270 272 273 275 276 277 278 279 281 282 283 286 287 289 290 291 291 291 292 293 293 293 293 293 293 294 295 296 296 296 297 296 296 295 295
256 258 260 261 264 266 267 268 270 271 273 274 275 276 278 279 281 282 284 286 287 289 289 290 291 291 292 292 292 292 293 293 293 293 294 296 297 297 297 296 296 296 297
256 257 259 261 263 265 266 268 270 272 273 274 276 276 277 279 281 282 284 285 287 288 289 290 291 292 292 293 292 292 292 293 293 294 295 296 296 296 296 296 297 298 298
255 257 258 260 261 264 266 269 270 272 273 274 276 277 277 278 280 282 283 285 286 287 288 289 290 291 292 292 292 292 292 293 293 294 295 295 295 295 295 296 298 299 299
256 257 259 260 262 264 267 269 271 272 273 274 275 276 278 279 281 282 283 284 285 285 287 288 290 291 291 292 292 292 292 293 293 293 293 294 295 295 295 295 297 299 299
Height
5857 5858 5858 5859 5859 5859 5858 5858 5858 5857 5856 5856 5855 5854 5853 5852 5850 5848 5847 5845 5843 5842 5840 5837 5835 5833 5830 5828 5826 5823 5821 5819 5816 5814 5812 5810 5808 5806 5804 5802 5800 5798 5796
5852 5853 5853 5854 5854 5854 5853 5853 5852 5852 5852 5851 5850 5849 5848 5846 5845 5843 5842 5840 5838 5836 5834 5832 5829 5827 5825 5822 5819 5817 5815 5812 5810 5808 5806 5804 5801 5799 5797 5795 5793 5791 5789
5846 5847 5848 5848 5848 5848 5848 5848 5847 5847 5846 5846 5845 5844 5843 5841 5840 5838 5836 5834 5832 5830 5828 5826 5823 5821 5818 5816 5813 5810 5808 5805 5803 5800 5798 5796 5794 5792 5790 5787 5785 5783 5781
5840 5841 5842 5842 5842 5842 5842 5842 5842 5841 5841 5840 5839 5838 5837 5836 5834 5832 5830 5828 5826 5824 5822 5819 5817 5814 5812 5809 5806 5804 5801 5798 5796 5793 5791 5789 5786 5784 5782 5779 5777 5775 5772
5833 5834 5835 5835 5836 5836 5836 5836 5836 5836 5835 5834 5833 5832 5831 5830 5828 5826 5824 5822 5820 5817 5815 5813 5810 5807 5805 5802 5799 5796 5793 5790 5788 5785 5783 5780 5778 5776 5773 5771 5768 5766 5763
5826 5827 5827 5828 5829 5829 5829 5829 5829 5829 5829 5828 5827 5826 5825 5823 5821 5819 5818 5815 5813 5811 5808 5805 5803 5800 5797 5794 5791 5788 5785 5782 5779 5777 5774 5771 5769 5766 5764 5761 5759 5756 5754
5820 5820 5820 5821 5822 5822 5823 5822 5822 5822 5821 5821 5820 5819 5818 5816 5815 5813 5811 5808 5806 5803 5801 5798 5795 5792 5789 5786 5782 5779 5776 5773 5770 5768 5765 5762 5759 5757 5754 5751 5749 5746 5743
5812 5813 5813 5814 5814 5815 5815 5815 5815 5815 5814 5813 5812 5811 5811 5810 5808 5806 5803 5801 5798 5796 5793 5790 5786 5783 5780 5777 5773 5770 5767 5764 5761 5758 5755 5752 5749 5747 5744 5741 5738 5735 5732
5804 5805 5806 5806 5806 5807 5807 5807 5807 5807 5806 5806 5804 5803 5802 5801 5800 5799 5796 5793 5790 5787 5784 5781 5777 5774 5770 5766 5763 5760 5757 5754 5751 5748 5745 5742 5739 5736 5733 5730 5727 5724 5721
5796 5797 5798 5798 5798 5798 5799 5799 5799 5799 5798 5797 5796 5795 5794 5792 5791 5790 5789 5785 5782 5779 5776 5772 5768 5764 5760 5756 5753 5750 5747 5744 5741 5738 5735 5732 5729 5726 5722 5719 5716 5712 5709
5787 5788 5789 5789 5790 5790 5790 5790 5790 5790 5790 5789 5788 5787 5785 5784 5782 5780 5779 5777 5774 5770 5766 5763 5759 5754 5750 5746 5743 5740 5737 5734 5731 5728 5725 5721 5718 5715 5711 5707 5704 5700 5696
5778 5779 5780 5780 5781 5782 5782 5782 5781 5781 5781 5780 5779 5778 5776 5775 5773 5770 5769 5767 5764 5762 5757 5753 5749 5744 5740 5736 5733 5730 5727 5724 5721 5718 5715 5711 5708 5704 5700 5696 5692 5688 5685
5768 5769 5770 5771 5772 5772 5773 5773 5772 5772 5772 5771 5770 5769 5767 5765 5763 5760 5758 5755 5753 5751 5748 5744 5739 5735 5731 5727 5723 5720 5717 5714 5711 5707 5704 5700 5697 5693 5689 5685 5681 5677 5673
5758 5759 5760 5761 5762 5763 5763 5763 5763 5763 5762 5761 5760 5759 5757 5755 5753 5750 5747 5745 5742 5741 5738 5734 5730 5725 5721 5717 5713 5710 5707 5703 5700 5697 5693 5689 5685 5681 5677 5673 5669 5665 5661
5747 5749 5750 5751 5752 5753 5753 5753 5753 5753 5752 5751 5750 5749 5747 5745 5742 5739 5737 5734 5732 5730 5728 5725 5721 5716 5711 5707 5703 5700 5696 5692 5689 5685 5682 5678 5674 5669 5665 5661 5657 5653 5649
5736 5738 5739 5741 5742 5742 5743 5743 5743 5742 5741 5740 5739 5738 5736 5734 5731 5729 5726 5724 5721 5718 5716 5714 5710 5705 5701 5696 5692 5689 5685 5681 5678 5674 5670 5666 5662 5657 5653 5649 5645 5641 5637
5725 5727 5729 5730 5731 5732 5732 5732 5732 5731 5730 5729 5728 5726 5725 5723 5720 5718 5716 5713 5710 5707 5705 5703 5698 5694 5690 5686 5682 5678 5674 5670 5666 5662 5658 5653 5649 5645 5641 5637 5633 5629 5625
5714 5716 5717 5718 5720 5720 5721 5721 5720 5720 5719 5718 5716 5715 5713 5711 5709 5707 5705 5702 5699 5696 5693 5691 5687 5683 5678 5674 5671 5667 5663 5658 5654 5650 5645 5640 5636 5633 5629 5625 5621 5617 5612
5702 5704 5705 5707 5708 5709 5709 5709 5708 5708 5707 5706 5704 5703 5702 5700 5698 5696 5693 5691 5688 5685 5681 5678 5675 5671 5667 5662 5659 5655 5651 5646 5642 5637 5633 5629 5625 5620 5616 5612 5608 5604 5599
5690 5692 5694 5695 5696 5697 5697 5697 5697 5696 5695 5694 5693 5691 5690 5688 5687 5684 5682 5679 5676 5673 5670 5666 5662 5659 5655 5651 5647 5643 5640 5635 5630 5626 5621 5617 5613 5608 5604 5599 5595 5591 5586
5678 5680 5681 5683 5684 5684 5685 5685 5684 5684 5683 5682 5681 5680 5678 5676 5674 5672 5670 5667 5664 5661 5658 5654 5650 5647 5643 5639 5635 5631 5627 5624 5619 5614 5610 5605 5601 5596 5592 5587 5582 5578 5573
5665 5667 5669 5670 5671 5672 5672 5672 5672 5672 5671 5670 5669 5668 5666 5665 5663 5661 5658 5655 5652 5649 5646 5642 5638 5635 5631 5627 5623 5618 5615 5611 5608 5603 5598 5594 5589 5584 5579 5574 5569 5565 5561
5653 5655 5656 5658 5659 5659 5659 5660 5659 5659 5658 5657 5656 5655 5654 5652 5651 5649 5646 5643 5640 5637 5633 5630 5627 5623 5619 5615 5611 5607 5603 5599 5595 5590 5586 5582 5577 5573 5568 5562 5557 5553 5548
5640 5642 5643 5645 5646 5646 5646 5647 5646 5646 5645 5644 5643 5642 5641 5640 5638 5636 5634 5631 5628 5625 5621 5618 5614 5610 5606 5602 5598 5594 5591 5587 5583 5578 5573 5570 5566 5561 5556 5551 5545 5541 5536
5627 5629 5630 5631 5633 5633 5633 5634 5634 5633 5632 5631 5630 5629 5628 5627 5625 5623 5621 5619 5616 5612 5609 5605 5601 5597 5593 5589 5585 5582 5578 5575 5572 5568 5562 5558 5554 5550 5545 5539 5533 5528 5523
5613 5615 5617 5618 5619 5620 5620 5620 5620 5620 5619 5618 5617 5616 5615 5614 5612 5610 5608 5605 5603 5600 5597 5593 5589 5585 5581 5577 5573 5569 5565 5562 5558 5555 5551 5546 5542 5537 5534 5529 5523 5517 5512